| time (UTC) | temp C | wind direction | speed KPH | gust KPH | rain 1hr cm | rain 24hr cm | rain mn cm | humidity % | barometer mb |
| 20260507171356 | 30 | 90 | 20.9 | 0.0 | 0.00 | 0.00 | 0.00 | 53 | 1012.0 |
| 20260507170356 | 31 | 90 | 20.9 | 0.0 | 0.00 | 0.00 | 0.00 | 53 | 1012.0 |
| 20260507165356 | 31 | 90 | 20.9 | 0.0 | 0.00 | 0.00 | 0.00 | 53 | 1012.0 |
| 20260507164355 | 31 | 90 | 20.9 | 0.0 | 0.00 | 0.00 | 0.00 | 53 | 1012.0 |
| 20260507163355 | 31 | 90 | 20.9 | 0.0 | 0.00 | 0.00 | 0.00 | 53 | 1012.0 |
| 20260507162354 | 32 | 90 | 20.9 | 0.0 | 0.00 | 0.00 | 0.00 | 53 | 1013.0 |
| 20260507161354 | 29 | 60 | 20.9 | 0.0 | 0.00 | 0.00 | 0.00 | 58 | 1013.0 |
| 20260507160354 | 30 | 60 | 20.9 | 0.0 | 0.00 | 0.00 | 0.00 | 58 | 1013.0 |
| 20260507155353 | 30 | 60 | 20.9 | 0.0 | 0.00 | 0.00 | 0.00 | 58 | 1013.0 |
| 20260507154353 | 27 | 60 | 20.9 | 0.0 | 0.00 | 0.00 | 0.00 | 61 | 1013.0 |
| 20260507153352 | 27 | 60 | 20.9 | 0.0 | 0.00 | 0.00 | 0.00 | 61 | 1013.0 |
| 20260507152352 | 28 | 60 | 20.9 | 0.0 | 0.00 | 0.00 | 0.00 | 61 | 1013.0 |
| 20260507151351 | 28 | 80 | 6.4 | 0.0 | 0.00 | 0.00 | 0.00 | 63 | 1013.0 |
| 20260507150351 | 28 | 80 | 6.4 | 0.0 | 0.00 | 0.00 | 0.00 | 63 | 1013.0 |
| 20260507145351 | 28 | 80 | 6.4 | 0.0 | 0.00 | 0.00 | 0.00 | 63 | 1013.0 |
| 20260507144350 | 28 | 80 | 6.4 | 0.0 | 0.00 | 0.00 | 0.00 | 63 | 1013.0 |
| 20260507143350 | 28 | 80 | 6.4 | 0.0 | 0.00 | 0.00 | 0.00 | 64 | 1013.0 |
| 20260507142350 | 26 | 100 | 17.7 | 0.0 | 0.00 | 0.00 | 0.00 | 67 | 1013.0 |
| 20260507141349 | 26 | 100 | 17.7 | 0.0 | 0.00 | 0.00 | 0.00 | 67 | 1013.0 |
| 20260507140349 | 26 | 100 | 17.7 | 0.0 | 0.00 | 0.00 | 0.00 | 66 | 1013.0 |
| 20260507135349 | 27 | 100 | 17.7 | 0.0 | 0.00 | 0.00 | 0.00 | 66 | 1013.0 |
| 20260507134348 | 27 | 100 | 17.7 | 0.0 | 0.00 | 0.00 | 0.00 | 65 | 1013.0 |
| 20260507133347 | 28 | 100 | 17.7 | 0.0 | 0.00 | 0.00 | 0.00 | 65 | 1012.0 |
| 20260507132347 | 28 | 100 | 17.7 | 0.0 | 0.00 | 0.00 | 0.00 | 65 | 1012.0 |
| 20260507131347 | 24 | 120 | 6.4 | 0.0 | 0.00 | 0.00 | 0.00 | 74 | 1012.0 |
| 20260507130346 | 25 | 120 | 6.4 | 0.0 | 0.00 | 0.00 | 0.00 | 74 | 1012.0 |
| 20260507125346 | 25 | 120 | 6.4 | 0.0 | 0.00 | 0.00 | 0.00 | 74 | 1012.0 |
| 20260507124346 | 26 | 120 | 6.4 | 0.0 | 0.00 | 0.00 | 0.00 | 74 | 1012.0 |
| 20260507123346 | 23 | 96 | 16.1 | 29.0 | 0.00 | 0.00 | 0.00 | 74 | 1012.0 |
| 20260507122345 | 23 | 105 | 16.1 | 33.8 | 0.00 | 0.00 | 0.00 | 74 | 1011.0 |
| 20260507121345 | 23 | 140 | 8.0 | 0.0 | 0.00 | 0.00 | 0.00 | 74 | 1011.0 |
| 20260507120344 | 23 | 140 | 8.0 | 0.0 | 0.00 | 0.00 | 0.00 | 74 | 1011.0 |
| 20260507115344 | 23 | 140 | 8.0 | 0.0 | 0.00 | 0.00 | 0.00 | 74 | 1011.0 |
| 20260507114344 | 23 | 140 | 8.0 | 0.0 | 0.00 | 0.00 | 0.00 | 73 | 1011.0 |
| 20260507113343 | 24 | 140 | 8.0 | 0.0 | 0.00 | 0.00 | 0.00 | 72 | 1011.0 |
| 20260507112343 | 24 | 140 | 8.0 | 0.0 | 0.00 | 0.00 | 0.00 | 69 | 1011.0 |
| 20260507111343 | 25 | 140 | 8.0 | 0.0 | 0.00 | 0.00 | 0.00 | 70 | 1011.0 |
| 20260507110343 | 26 | 140 | 9.7 | 0.0 | 0.00 | 0.00 | 0.00 | 71 | 1011.0 |
| 20260507105343 | 23 | 101 | 16.1 | 35.4 | 0.00 | 0.00 | 0.00 | 66 | 1011.0 |
| 20260507104342 | 23 | 101 | 16.1 | 33.8 | 0.00 | 0.00 | 0.00 | 65 | 1011.0 |
| 20260507103342 | 23 | 101 | 16.1 | 35.4 | 0.00 | 0.00 | 0.00 | 65 | 1011.0 |
| 20260507102342 | 23 | 96 | 17.7 | 38.6 | 0.00 | 0.00 | 0.00 | 63 | 1011.0 |
| 20260507101341 | 23 | 96 | 17.7 | 38.6 | 0.00 | 0.00 | 0.00 | 63 | 1011.0 |
| 20260507100341 | 24 | 96 | 17.7 | 38.6 | 0.00 | 0.00 | 0.00 | 63 | 1011.0 |
| 20260507095341 | 24 | 96 | 17.7 | 38.6 | 0.00 | 0.00 | 0.00 | 63 | 1011.0 |
| 20260507094340 | 25 | 96 | 17.7 | 38.6 | 0.00 | 0.00 | 0.00 | 63 | 1011.0 |
| 20260507093340 | 25 | 96 | 19.3 | 38.6 | 0.00 | 0.00 | 0.00 | 63 | 1011.0 |
| 20260507092340 | 23 | 93 | 20.9 | 38.6 | 0.00 | 0.00 | 0.00 | 64 | 1011.0 |
| 20260507091339 | 23 | 93 | 20.9 | 38.6 | 0.00 | 0.00 | 0.00 | 64 | 1011.0 |
| 20260507090339 | 23 | 90 | 20.9 | 33.8 | 0.00 | 0.00 | 0.00 | 64 | 1011.0 |
| 20260507085338 | 24 | 90 | 20.9 | 33.8 | 0.00 | 0.00 | 0.00 | 64 | 1011.0 |
| 20260507084338 | 25 | 90 | 20.9 | 33.8 | 0.00 | 0.00 | 0.00 | 64 | 1011.0 |
| 20260507083338 | 25 | 90 | 20.9 | 33.8 | 0.00 | 0.00 | 0.00 | 64 | 1011.0 |
| 20260507082337 | 26 | 90 | 20.9 | 35.4 | 0.00 | 0.00 | 0.00 | 64 | 1011.0 |
| 20260507081337 | 23 | 90 | 20.9 | 35.4 | 0.00 | 0.00 | 0.00 | 63 | 1011.0 |
| 20260507080337 | 23 | 90 | 20.9 | 35.4 | 0.00 | 0.00 | 0.00 | 63 | 1011.0 |
| 20260507075336 | 23 | 103 | 17.7 | 29.0 | 0.00 | 0.00 | 0.00 | 63 | 1011.0 |
| 20260507074336 | 24 | 103 | 17.7 | 29.0 | 0.00 | 0.00 | 0.00 | 63 | 1011.0 |
| 20260507073336 | 25 | 103 | 17.7 | 29.0 | 0.00 | 0.00 | 0.00 | 63 | 1012.0 |
| 20260507072335 | 25 | 103 | 17.7 | 29.0 | 0.00 | 0.00 | 0.00 | 63 | 1012.0 |
| 20260507071335 | 25 | 103 | 17.7 | 29.0 | 0.00 | 0.00 | 0.00 | 63 | 1012.0 |
| 20260507070335 | 26 | 103 | 17.7 | 29.0 | 0.00 | 0.00 | 0.00 | 63 | 1012.0 |
| 20260507065334 | 26 | 103 | 17.7 | 29.0 | 0.00 | 0.00 | 0.00 | 63 | 1012.0 |
| 20260507064334 | 27 | 103 | 17.7 | 29.0 | 0.00 | 0.00 | 0.00 | 63 | 1012.0 |
| 20260507063334 | 27 | 103 | 17.7 | 29.0 | 0.00 | 0.00 | 0.00 | 63 | 1012.0 |
| 20260507062333 | 28 | 103 | 17.7 | 30.6 | 0.00 | 0.00 | 0.00 | 63 | 1012.0 |
| 20260507061333 | 28 | 103 | 17.7 | 30.6 | 0.00 | 0.00 | 0.00 | 63 | 1012.0 |
| 20260507060333 | 25 | 130 | 17.7 | 0.0 | 0.00 | 0.00 | 0.00 | 62 | 1012.0 |
| 20260507055333 | 25 | 130 | 17.7 | 0.0 | 0.00 | 0.00 | 0.00 | 62 | 1012.0 |
| 20260507054332 | 25 | 130 | 17.7 | 0.0 | 0.00 | 0.00 | 0.00 | 62 | 1012.0 |
| 20260507053332 | 26 | 130 | 17.7 | 0.0 | 0.00 | 0.00 | 0.00 | 62 | 1012.0 |
| 20260507052331 | 26 | 130 | 17.7 | 0.0 | 0.00 | 0.00 | 0.00 | 62 | 1012.0 |
| 20260507051331 | 27 | 130 | 17.7 | 0.0 | 0.00 | 0.00 | 0.00 | 62 | 1012.0 |
| 20260507050331 | 27 | 130 | 17.7 | 0.0 | 0.00 | 0.00 | 0.00 | 62 | 1012.0 |
| 20260507045330 | 27 | 130 | 17.7 | 0.0 | 0.00 | 0.00 | 0.00 | 62 | 1012.0 |
| 20260507044330 | 27 | 130 | 17.7 | 0.0 | 0.00 | 0.00 | 0.00 | 61 | 1012.0 |
| 20260507043329 | 28 | 130 | 17.7 | 0.0 | 0.00 | 0.00 | 0.00 | 61 | 1012.0 |
| 20260507042329 | 28 | 130 | 17.7 | 0.0 | 0.00 | 0.00 | 0.00 | 59 | 1012.0 |
| 20260507041329 | 28 | 110 | 8.0 | 0.0 | 0.00 | 0.00 | 0.00 | 56 | 1012.0 |
| 20260507040328 | 28 | 110 | 8.0 | 0.0 | 0.00 | 0.00 | 0.00 | 56 | 1012.0 |
| 20260507035328 | 29 | 110 | 9.7 | 0.0 | 0.00 | 0.00 | 0.00 | 56 | 1012.0 |
| 20260507034328 | 26 | 120 | 17.7 | 0.0 | 0.00 | 0.00 | 0.00 | 51 | 1012.0 |
| 20260507033327 | 27 | 120 | 17.7 | 0.0 | 0.00 | 0.00 | 0.00 | 51 | 1012.0 |
| 20260507032327 | 27 | 120 | 17.7 | 0.0 | 0.00 | 0.00 | 0.00 | 51 | 1012.0 |
| 20260507031326 | 28 | 120 | 17.7 | 0.0 | 0.00 | 0.00 | 0.00 | 51 | 1012.0 |
| 20260507030326 | 30 | 120 | 17.7 | 0.0 | 0.00 | 0.00 | 0.00 | 52 | 1012.0 |
| 20260507025326 | 30 | 120 | 17.7 | 0.0 | 0.00 | 0.00 | 0.00 | 52 | 1012.0 |
| 20260507024325 | 27 | 95 | 17.7 | 33.8 | 0.00 | 0.00 | 0.00 | 46 | 1012.0 |
| 20260507023325 | 27 | 95 | 19.3 | 33.8 | 0.00 | 0.00 | 0.00 | 46 | 1012.0 |
| 20260507022325 | 27 | 91 | 20.9 | 33.8 | 0.00 | 0.00 | 0.00 | 46 | 1011.0 |
| 20260507021324 | 28 | 91 | 20.9 | 33.8 | 0.00 | 0.00 | 0.00 | 46 | 1011.0 |
| 20260507020324 | 28 | 91 | 20.9 | 35.4 | 0.00 | 0.00 | 0.00 | 46 | 1011.0 |
| 20260507015323 | 27 | 104 | 20.9 | 38.6 | 0.00 | 0.00 | 0.00 | 46 | 1011.0 |
| 20260507014323 | 28 | 104 | 20.9 | 38.6 | 0.00 | 0.00 | 0.00 | 46 | 1010.0 |
| 20260507013323 | 28 | 104 | 20.9 | 38.6 | 0.00 | 0.00 | 0.00 | 46 | 1009.0 |
| 20260507012322 | 29 | 104 | 20.9 | 38.6 | 0.00 | 0.00 | 0.00 | 46 | 1009.0 |
| 20260507011322 | 30 | 104 | 20.9 | 38.6 | 0.00 | 0.00 | 0.00 | 46 | 1009.0 |
| 20260507010322 | 30 | 104 | 20.9 | 38.6 | 0.00 | 0.00 | 0.00 | 46 | 1009.0 |
| 20260507005321 | 34 | 120 | 17.7 | 0.0 | 0.00 | 0.00 | 0.00 | 43 | 1009.0 |
| 20260507004321 | 27 | 104 | 20.9 | 38.6 | 0.00 | 0.00 | 0.00 | 46 | 1009.0 |
| 20260507003321 | 34 | 120 | 17.7 | 0.0 | 0.00 | 0.00 | 0.00 | 43 | 1009.0 |
| 20260507002321 | 28 | 107 | 29.0 | 29.0 | 0.00 | 0.00 | 0.00 | 41 | 1009.0 |
| 20260507001320 | 29 | 107 | 29.0 | 29.0 | 0.00 | 0.00 | 0.00 | 39 | 1009.0 |
| 20260507000321 | 30 | 107 | 29.0 | 29.0 | 0.00 | 0.00 | 0.00 | 38 | 1009.0 |
| 20260506235319 | 31 | 107 | 29.0 | 29.0 | 0.00 | 0.00 | 0.00 | 37 | 1009.0 |
| 20260506234319 | 32 | 107 | 29.0 | 29.0 | 0.00 | 0.00 | 0.00 | 37 | 1009.0 |
| 20260506233318 | 32 | 107 | 29.0 | 29.0 | 0.00 | 0.00 | 0.00 | 37 | 1009.0 |
| 20260506232318 | 32 | 107 | 29.0 | 29.0 | 0.00 | 0.00 | 0.00 | 36 | 1008.0 |
| 20260506231317 | 31 | 107 | 29.0 | 29.0 | 0.00 | 0.00 | 0.00 | 36 | 1008.0 |
| 20260506230317 | 30 | 107 | 29.0 | 29.0 | 0.00 | 0.00 | 0.00 | 35 | 1008.0 |
| 20260506225317 | 31 | 107 | 29.0 | 29.0 | 0.00 | 0.00 | 0.00 | 35 | 1008.0 |
| 20260506224316 | 31 | 107 | 29.0 | 29.0 | 0.00 | 0.00 | 0.00 | 35 | 1008.0 |
| 20260506223316 | 32 | 107 | 29.0 | 29.0 | 0.00 | 0.00 | 0.00 | 35 | 1008.0 |
| 20260506222315 | 32 | 107 | 29.0 | 29.0 | 0.00 | 0.00 | 0.00 | 35 | 1008.0 |
| 20260506221315 | 33 | 107 | 29.0 | 29.0 | 0.00 | 0.00 | 0.00 | 34 | 1008.0 |
| 20260506220315 | 33 | 107 | 29.0 | 29.0 | 0.00 | 0.00 | 0.00 | 34 | 1008.0 |
| 20260506215314 | 34 | 107 | 29.0 | 29.0 | 0.00 | 0.00 | 0.00 | 34 | 1008.0 |
| 20260506214314 | 34 | 107 | 29.0 | 29.0 | 0.00 | 0.00 | 0.00 | 34 | 1008.0 |
| 20260506213314 | 35 | 107 | 29.0 | 29.0 | 0.00 | 0.00 | 0.00 | 34 | 1008.0 |
| 20260506212314 | 35 | 107 | 29.0 | 29.0 | 0.00 | 0.00 | 0.00 | 34 | 1008.0 |
| 20260506211313 | 36 | 107 | 29.0 | 30.6 | 0.00 | 0.00 | 0.00 | 34 | 1008.0 |
| 20260506210313 | 33 | 107 | 29.0 | 29.0 | 0.00 | 0.00 | 0.00 | 36 | 1008.0 |
| 20260506205313 | 33 | 107 | 29.0 | 30.6 | 0.00 | 0.00 | 0.00 | 36 | 1008.0 |
| 20260506204313 | 33 | 100 | 20.9 | 0.0 | 0.00 | 0.00 | 0.00 | 37 | 1008.0 |
| 20260506203312 | 33 | 100 | 20.9 | 0.0 | 0.00 | 0.00 | 0.00 | 36 | 1008.0 |
| 20260506202312 | 34 | 100 | 20.9 | 0.0 | 0.00 | 0.00 | 0.00 | 35 | 1008.0 |
| 20260506201312 | 34 | 100 | 20.9 | 0.0 | 0.00 | 0.00 | 0.00 | 35 | 1008.0 |
| 20260506200311 | 35 | 100 | 20.9 | 0.0 | 0.00 | 0.00 | 0.00 | 35 | 1008.0 |
| 20260506195311 | 35 | 100 | 20.9 | 0.0 | 0.00 | 0.00 | 0.00 | 34 | 1008.0 |
| 20260506194311 | 36 | 100 | 20.9 | 0.0 | 0.00 | 0.00 | 0.00 | 34 | 1009.0 |
| 20260506193310 | 33 | 90 | 24.1 | 0.0 | 0.00 | 0.00 | 0.00 | 39 | 1010.0 |
| 20260506192310 | 33 | 90 | 24.1 | 0.0 | 0.00 | 0.00 | 0.00 | 39 | 1010.0 |
| 20260506191310 | 33 | 90 | 24.1 | 0.0 | 0.00 | 0.00 | 0.00 | 39 | 1010.0 |
| 20260506190309 | 34 | 90 | 25.7 | 0.0 | 0.00 | 0.00 | 0.00 | 39 | 1010.0 |
| 20260506185309 | 34 | 90 | 25.7 | 0.0 | 0.00 | 0.00 | 0.00 | 39 | 1010.0 |
| 20260506184308 | 34 | 90 | 25.7 | 0.0 | 0.00 | 0.00 | 0.00 | 40 | 1010.0 |
| 20260506183308 | 35 | 90 | 25.7 | 0.0 | 0.00 | 0.00 | 0.00 | 40 | 1011.0 |
| 20260506182307 | 32 | 70 | 17.7 | 0.0 | 0.00 | 0.00 | 0.00 | 46 | 1011.0 |
| 20260506181307 | 32 | 70 | 17.7 | 0.0 | 0.00 | 0.00 | 0.00 | 46 | 1011.0 |
| 20260506180307 | 33 | 70 | 17.7 | 0.0 | 0.00 | 0.00 | 0.00 | 46 | 1011.0 |
| 20260506175306 | 33 | 70 | 17.7 | 0.0 | 0.00 | 0.00 | 0.00 | 46 | 1011.0 |
| 20260506174306 | 32 | 70 | 17.7 | 0.0 | 0.00 | 0.00 | 0.00 | 46 | 1011.0 |
| 20260506173306 | 32 | 70 | 17.7 | 0.0 | 0.00 | 0.00 | 0.00 | 46 | 1012.0 |
| 20260506172307 | 33 | 70 | 17.7 | 0.0 | 0.00 | 0.00 | 0.00 | 46 | 1012.0 |